     2              OBSERVATION DATA    GPS                 RINEX VERSION / TYPE
teqc 1997Jul24 19970902 21:18:44UTC                         PGM / RUN BY / DATE
                                                            COMMENT
BIT 2 OF LLI FLAGS DATA COLLECTED UNDER A-S CONDITION       COMMENT
BIT 2 OF LLI FLAGS DATA COLLECTED UNDER A-S CONDITION       COMMENT
Original Marker Name: 55496.YUMA                            COMMENT
Campaign Name: Salt. Tr. Crust. Monit. May-Jun 1986         COMMENT
4-Character Station Name: YUMA                              COMMENT
6-Character Antenna Code: TI4100                            COMMENT
Vertical Measurement Point: PAE                             COMMENT
Vertical Offset to Rinex Ref. Point: 0.0000                 COMMENT
Radial Measurement Point: RRP                               COMMENT
Radial Offset to Rinex Ref. Point: 0.0000                   COMMENT
Antenna Height from Field Measurement: 1.4140 m             COMMENT
Original XYZ: -1840896.1729 -4023075.7556 2820247.5185      COMMENT
New XYZ position is based on association with SCEC monument COMMENT
E1C9S0R6+0011. Position of that monument is believed to be  COMMENT
valid to within 1 m horizontally; vertical accuracy         COMMENT
should be no worse than 3-times this value.                 COMMENT
                                                            COMMENT
Revised Rinex header created by UCSD GPS archive for        COMMENT
GSAC on 12-Apr-1999 (1999:102) 01:25:44 GMT                 COMMENT
For assistance contact dagnew@ucsd.edu or hjohnson@ucsd.edu COMMENT
                                                            COMMENT
YUMA NCMN 1983                                              MARKER NAME
5 NATIONAL GEODETIC SURVEY                                  OBSERVER / AGENCY
UT04 TI 4100 1.0                                            REC # / TYPE / VERS
108 TI 4100                                                 ANT # / TYPE
 -2196778.0000 -4887337.0000  3448425.0000                  APPROX POSITION XYZ
        1.4140        0.0000        0.0000                  ANTENNA: DELTA H/E/N
     1     1     0                                          WAVELENGTH FACT L1/2
     4    P1    P2    L1    L2                              # / TYPES OF OBSERV
     6                                                      INTERVAL
  1986     6    17     4    15   53.000000                  TIME OF FIRST OBS
  1986     6    17     4    35   59.000000                  TIME OF LAST OBS
     0                                                      # OF SATELLITES
                                                            END OF HEADER
 86  6 17  4 15 53.0800000  0  3G12G13G 7
  21529590.749    21529598.948    45179871.710 6 -61548599.372 3
  21899935.373    21899940.244     7653613.989 5  -6319347.295 4
  24535775.306    24535775.120      875626.606 6  -1198820.151 3
 86  6 17  4 15 59.0800000  0  3G12G13G 7
  21532251.733    21532261.120    45193850.275 6 -61537706.992 4
  21901622.164    21901625.736     7662482.202 5  -6312436.998 3
  24535039.228    24535042.175      871790.675 6  -1201809.213 3
 86  6 17  4 16  5.0800000  0  3G12G13G 7
  21534915.296    21534920.119    45207848.291 5 -61526799.431 5
  21903311.474    21903313.870     7671351.992 4  -6305525.477 3
  24534315.831    24534320.868      867990.192 5  -1204770.210 1
 86  6 17  4 16 11.0800000  0  3G12G13G 7
  21537583.389    21537589.845    45221865.754 6 -61515876.765 3
  21905000.162    21905002.461     7680223.405 6  -6298612.688 1
  24533600.648    24533604.270      864222.160 6  -1207706.356 3
 86  6 17  4 16 17.0800000  0  3G12G13G 7
  21540254.298    21540260.394    45235902.652 5 -61504938.890 2
  21906689.616    21906691.028     7689096.498 5  -6291698.598 3
  24532885.093    24532890.305      860481.421 5  -1210621.181 2
 86  6 17  4 16 23.0800000  0  3G12G13G 7
  21542928.313    21542934.481    45249959.009 6 -61493985.929 3
  21908375.074    21908381.738     7697971.354 6  -6284783.140 1
  24532179.680    24532182.572      856764.882 6  -1213517.234 2
 86  6 17  4 16 29.0800000  0  3G12G13G 7
  21545607.486    21545617.317    45264034.739 6 -61483017.811 2
  21910065.129    21910067.208     7706847.985 5  -6277866.269 2
  24531475.148    24531481.168      853070.057 6  -1216396.296 2
 86  6 17  4 16 35.0800000  0  3G12G13G 7
  21548289.579    21548296.490    45278129.898 6 -61472034.572 3
  21911753.811    21911758.080     7715726.343 5  -6270948.063 3
  24530777.693    24530781.171      849395.589 6  -1219259.502 1
 86  6 17  4 16 41.0800000  0  3G12G13G 7
  21550973.021    21550979.900    45292244.513 4 -61461036.179 3
  21913445.364    21913450.236     7724606.420 5  -6264028.523 2
  24530082.204    24530079.238      845742.187 6  -1222106.326 1
 86  6 17  4 16 47.0800000  0  3G12G13G 7
  21553665.588    21553670.504    45306378.411 5 -61450022.755 4
  21915136.243    21915139.982     7733488.154 5  -6257107.681 3
                  24529403.700                    -1224942.476 3
 86  6 17  4 16 53.0800000  0  3G12G13G 7
  21556357.233    21556363.712    45320531.579 4 -61438994.338 2
  21916825.708    21916829.971     7742371.510 6  -6250185.609 3
                  24528708.106                     -328200.155 5
 86  6 17  4 16 59.0800000  0  3G12G13G 7
  21559057.080    21559062.474    45334703.878 6 -61427950.980 4
  21918515.314    21918520.117     7751256.475 5  -6243262.231 4
                  24528029.017                     -331772.956 7
 86  6 17  4 17  5.0800000  0  3G12G13G 7
  21561754.866    21561761.984    45348895.317 5 -61416892.702 4
  21920208.459    21920211.945     7760142.974 6  -6236337.689 3
                  24527357.414                     -424273.244 4
 86  6 17  4 17 11.0800000  0  3G12G13G 7
  21564458.846    21564465.855    45363105.764 6 -61405819.661 4
  21921901.072    21921905.808     7769031.006 5  -6229411.970 2
                  24526695.313                     -427783.538 3
 86  6 17  4 17 17.0800000  0  3G12G13G 7
  21567166.299    21567176.078    45377335.288 6 -61394731.711 4
  21923592.068    21923595.803     7777920.457 5  -6222485.092 1
                  24526037.782                     -431226.013 6
 86  6 17  4 17 23.0800000  0  3G12G13G 7
  21569878.550    21569883.978    45391583.741 5 -61383629.050 3
  21925283.077    21925288.631     7786811.488 6  -6215557.025 3
                  24525168.140                     -533991.831 3
 86  6 17  4 17 29.0800000  0  3G12G13G 7
  21572592.637    21572600.247    45405851.141 5 -61372511.579 5
  21926974.297    21926978.961     7795704.006 5  -6208627.828 3
                  24524732.853                     -561368.965 3
 86  6 17  4 17 35.0800000  0  3G12G13G 7
  21575313.335    21575320.413    45420137.490 5 -61361379.328 4
  21928666.505    21928668.106     7804597.915 6  -6201697.440 3
                  24524086.656                     -564748.543 4
 86  6 17  4 17 41.0800000  0  3G12G13G 7
  21578032.539    21578042.889    45434442.812 6 -61350232.352 3
  21930359.855    21930361.932     7813493.408 7  -6194765.916 2
                  24523443.509                     -568131.954 6
 86  6 17  4 17 47.0800000  0  3G12G13G 7
  21580758.630    21580764.257    45448767.166 6 -61339070.548 2
  21932051.974    21932053.499     7822390.512 6  -6187833.100 2
                  24522806.998                     -571478.275 4
 86  6 17  4 17 53.0800000  0  3G12G13G 7
  21583491.544    21583494.966    45463110.395 6 -61327893.963 3
  21933746.095    21933749.222     7831289.136 6  -6180899.105 3
                  24522176.058                     -574790.291 6
 86  6 17  4 17 59.0800000  0  3G12G13G 7
  21586225.240    21586228.913    45477472.706 5 -61316702.606 4
  21935440.334    21935442.109     7840189.378 6  -6173963.840 1
                  24521552.219                     -578077.611 5
 86  6 17  4 18  5.0800000  0  3G12G13G 7
  21588958.593    21588967.424    45491854.060 6 -61305496.334 3
  21937132.881    21937140.105     7849091.399 5  -6167027.194 1
                  24520935.667                     -581317.430 3
 86  6 17  4 18 11.0800000  0  3G12G13G 7
  21591698.804    21591703.588    45506254.463 7 -61294275.242 4
  21938827.491    21938831.659     7857995.102 6  -6160089.247 3
                  24520325.258                     -584500.392 5
 86  6 17  4 18 17.0800000  0  3G12G13G 7
  21594444.457    21594451.934    45520673.808 5 -61283039.387 4
  21940521.264    21940526.453     7866900.555 5  -6153149.937 3
                  24519718.853                     -587693.043 6
 86  6 17  4 18 23.0800000  0  3G12G13G 7
  21597189.766    21597197.277    45535112.165 5 -61271788.712 3
  21942218.557    21942220.555     7875807.704 6  -6146209.280 3
  24519116.902    24519161.032     -590852.709 6   1132501.577 2
 86  6 17  4 18 29.0800000  0  3G12G13G 7
  21599944.223    21599948.744    45549569.364 5 -61260523.422 4
  21943912.636    21943917.966     7884716.452 5  -6139267.431 2
  24518519.286    24518521.781     -593991.246 7   1130056.193 1
 86  6 17  4 18 35.0800000  0  3G12G13G 7
  21602697.267    21602702.684    45564045.370 5 -61249243.403 1
  21945607.072    21945613.158     7893626.795 6  -6132324.316 2
  24517925.500    24517933.060     -597109.457 6   1127626.868 2
 86  6 17  4 18 41.0800000  0  3G12G13G 7
  21605456.079    21605463.105    45578540.262 6 -61237948.661 1
  21947304.657    21947307.868     7902538.868 5  -6125379.839 3
  24517336.756    24517341.931     -600206.177 7   1125213.868 1
 86  6 17  4 18 47.0800000  0  3G12G13G 7
  21608218.011    21608224.064    45593054.053 5 -61226639.243 3
  21948999.867    21949000.256     7911452.606 5  -6118434.075 2
                  24516753.823     -603276.018 6
 86  6 17  4 18 53.0800000  0  3G12G13G 7
  21610984.183    21610992.767    45607586.650 7 -61215315.153 2
  21950696.834    21950701.174     7920367.933 6  -6111487.038 3
  24516174.735    24516182.097     -606311.865 7   1175149.229 2
 86  6 17  4 18 59.0800000  0  3G12G13G 7
  21613752.842    21613755.413    45622137.921 5 -61203976.435 2
  21952393.468    21952401.828     7929284.819 6  -6104538.832 3
  24515606.116    24515607.386     -609309.772 6   1172813.153 1
 86  6 17  4 19  5.0800000  0  3G12G13G 7
  21616525.070    21616530.021    45636707.900 4 -61192623.241 3
  21954089.677    21954096.115     7938203.241 5  -6097589.398 3
  24515041.358    24515047.817     -612272.178 6   1170504.808 2
 86  6 17  4 19 11.0800000  0  3G12G13G 7
  21619300.308    21619308.131    45651296.424 4 -61181255.564 3
  21955787.624    21955792.573     7947123.237 5  -6090638.750 3
  24514485.122    24514486.512     -615203.567 7   1168220.590 3
 86  6 17  4 19 17.0800000  0  3G12G13G 7
  21622077.849    21622086.888    45665903.644 4 -61169873.333 3
  21957484.959    21957489.258     7956044.788 6  -6083686.890 2
  24513932.106    24513937.337     -618108.224 6   1165957.222 2
 86  6 17  4 19 23.0800000  0  3G12G13G 7
  21624862.498    21624870.031    45680529.452 5 -61158476.571 3
  21959183.636    21959189.901     7964967.927 5  -6076733.765 1
  24513382.118    24513386.870     -620989.144 7   1163712.375 3
 86  6 17  4 19 29.0800000  0  3G12G13G 7
  21627649.872    21627656.411    45695173.892 6 -61147065.366 3
  21960882.646    21960887.347     7973892.665 6  -6069779.431 3
  24512840.961    24512844.728     -623848.739 6   1161484.117 3
 86  6 17  4 19 35.0800000  0  3G12G13G 7
  21630442.684    21630449.869    45709836.886 6 -61135639.657 3
  21962582.328    21962584.630     7982818.962 5  -6062823.864 4
  24512300.000    24512303.610     -626688.217 5   1159271.514 3
 86  6 17  4 19 41.0800000  0  3G12G13G 7
  21633233.158    21633242.826    45724518.434 5 -61124199.467 2
  21964279.599    21964285.967     7991746.837 5  -6055867.071 2
  24511762.744    24511763.059     -629506.080 7   1157075.769 3
 86  6 17  4 19 47.0800000  0  3G12G13G 7
  21636030.217    21636037.425    45739218.532 6 -61112744.845 3
  21965979.607    21965982.735     8000676.271 5  -6048909.076 3
                  24511234.984                     1154901.421 1
 86  6 17  4 19 53.0800000  0  3G12G13G 7
  21638832.546    21638841.363    45753937.326 4 -61101275.698 2
  21967677.171    21967683.042     8009607.445 6  -6041949.728 3
  24510707.335    24510711.313     -668606.428 5   1152753.995 2
 86  6 17  4 19 59.0800000  0  3G12G13G 7
  21641636.707    21641642.896    45768674.646 6 -61089792.028 2
  21969377.869    21969380.427     8018540.193 6  -6034989.143 3
  24510189.891    24510193.699     -671324.651 5   1150635.849 5
 86  6 17  4 20  5.0800000  0  3G12G13G 7
  21644445.051    21644449.525    45783430.536 6 -61078293.951 4
  21971077.894    21971081.720     8027474.592 5  -6028027.269 4
  24509679.059    24509682.867     -674007.412 7   1148545.412 2
 86  6 17  4 20 11.0800000  0  3G12G13G 7
  21647258.205    21647264.920    45798204.901 6 -61066781.501 2
  21972777.603    21972783.342     8036410.511 4  -6021064.205 2
  24509174.280    24509180.452     -676659.173 8   1146479.072 1
 86  6 17  4 20 17.0800000  0  3G12G13G 7
  21650068.816    21650079.589    45812997.615 6 -61055254.658 1
  21974479.814    21974483.839     8045348.037 6  -6014099.905 1
  24508675.508    24508679.494     -679284.405 6   1144433.453 2
 86  6 17  4 20 23.0800000  0  3G12G13G 7
  21652889.776    21652897.152    45827808.780 3 -61043713.541 3
  21976183.129    21976186.250     8054287.184 6  -6007134.318 3
  24508178.397    24508181.808     -681886.000 7   1142406.264 3
 86  6 17  4 20 29.0800000  0  3G12G13G 7
  21655711.274    21655717.751    45842638.306 5 -61032158.030 2
  21977883.317    21977888.866     8063227.957 6  -6000167.487 1
  24507686.965    24507693.219     -684466.332 6   1140395.589 3
 86  6 17  4 20 35.0800000  0  3G12G13G 7
  21658538.198    21658542.706    45857486.190 6 -61020588.290 2
  21979584.542    21979590.529     8072170.262 6  -5993199.451 3
  24507202.286    24507203.195     -687026.370 5   1138400.743 1
 86  6 17  4 20 41.0800000  0  3G12G13G 7
  21661367.133    21661378.945    45872352.425 6 -61009004.208 1
  21981285.048    21981289.121     8081114.192 6  -5986230.143 5
  24506718.581    24506722.232     -689564.456 5   1136423.029 3
 86  6 17  4 20 47.0800000  0  3G12G13G 7
  21664198.800    21664201.946    45887237.082 5 -60997405.754 1
  21982986.061    21982992.859     8090059.738 6  -5979259.598 3
                  24506249.832                     1134466.953 1
 86  6 17  4 20 53.0800000  0  3G12G13G 7
  21667034.178    21667037.833    45902140.043 5 -60985793.052 3
  21984691.954    21984698.212     8099006.828 3  -5972287.823 4
  24505769.436    24505768.699     -728505.724 5   1132538.087 2
 86  6 17  4 20 59.0800000  0  3G12G13G 7
  21669874.359    21669878.196    45917061.177 5 -60974166.224 2
  21986393.910    21986398.099     8107955.486 4  -5965314.833 5
  24505307.968    24505312.131     -730943.302 6   1130638.571 3
 86  6 17  4 21  5.0800000  0  3G12G13G 7
  21672714.636    21672722.360    45932000.598 6 -60962525.101 1
  21988094.013    21988104.616     8116905.787 4  -5958340.614 3
  24504848.455    24504852.488     -733346.113 6   1128766.670 1
 86  6 17  4 21 11.0800000  0  3G12G13G 7
  21675562.548    21675568.951    45946958.210 3 -60950869.815 1
  21989800.759    21989807.514     8125857.620 5  -5951365.144 4
  24504399.192    24504400.871     -735717.667 6   1126918.707 1
 86  6 17  4 21 17.0800000  0  3G12G13G 7
  21678415.230    21678421.986    45961934.031 6 -60939200.337 1
  21991504.724    21991507.706     8134810.954 4  -5944388.484 3
  24503951.366    24503952.891     -738062.800 4   1125091.324 3
 86  6 17  4 21 23.0800000  0  3G12G13G 7
  21681268.768    21681267.875    45976928.054 5 -60927516.677 1
  21993208.261    21993212.718     8143765.889 4  -5937410.652 4
  24503507.386    24503508.938     -740384.388 6   1123282.289 2
 86  6 17  4 21 29.0800000  0  3G12G13G 7
  21684123.458    21684129.549    45991940.224 5 -60915818.888 3
  21994910.281    21994914.221     8152722.456 6  -5930431.504 4
  24503071.036    24503077.585     -742684.675 6   1121489.850 3
 86  6 17  4 21 35.0800000  0  3G12G13G 7
  21686982.331    21686989.758    46006970.453 7 -60904107.032 3
  21996616.115    21996620.104     8161680.589 5  -5923451.137 5
  24502636.663    24502643.330     -744964.739 6   1119713.188 3
 86  6 17  4 21 41.0800000  0  3G12G13G 7
  21689847.421    21689851.002    46022018.773 6 -60892381.062 3
  21998323.657    21998327.020     8170640.429 6  -5916469.462 4
  24502208.125    24502207.981     -747222.498 6   1117953.881 2
 86  6 17  4 21 47.0800000  0  3G12G13G 7
  21692715.431    21692719.257    46037085.172 6 -60880641.040 3
  22000026.846    22000032.149     8179601.808 5  -5909486.527 4
                  24501786.513                     1116216.547 3
 86  6 17  4 21 53.0800000  0  3G12G13G 7
  21695583.965    21695588.071    46052169.619 6 -60868886.913 3
  22001729.754    22001737.038     8188564.753 5  -5902502.442 3
  24501365.493    24501371.362     -785884.260 5   1114506.443 2
 86  6 17  4 21 59.0800000  0  3G12G13G 7
  21698459.518    21698458.728    46067271.964 6 -60857118.855 3
  22003437.697    22003443.228     8197529.147 6  -5895517.177 3
  24500954.564    24500959.200     -788041.211 6   1112825.653 4
 86  6 17  4 22  5.0800000  0  3G12G13G 7
  21701335.403    21701344.211    46082392.148 6 -60845336.883 4
  22005143.416    22005149.408     8206494.933 5  -5888530.848 4
  24500550.710    24500555.417     -790162.843 6   1111172.073 2
 86  6 17  4 22 11.0800000  0  3G12G13G 7
  21704218.120    21704219.557    46097530.136 6 -60833541.077 1
  22006850.015    22006858.048     8215462.077 6  -5881543.484 3
  24500153.324    24500158.941     -792254.731 5   1109542.019 1
 86  6 17  4 22 17.0800000  0  3G12G13G 7
  21707098.378    21707107.522    46112685.976 5 -60821731.320 4
  22008556.357    22008564.588     8224430.629 4  -5874554.970 3
  24499759.524    24499761.689     -794320.522 6   1107932.328 4
 86  6 17  4 22 23.0800000  0  3G12G13G 7
  21709986.877    21709991.172    46127859.604 6 -60809907.701 3
  22010263.387    22010272.302     8233400.649 5  -5867565.357 3
  24499371.591    24499377.557     -796362.939 6   1106340.824 2
 86  6 17  4 22 29.0800000  0  3G12G13G 7
  21712878.971    21712883.837    46143051.041 6 -60798070.195 3
  22011971.537    22011977.039     8242372.196 5  -5860574.542 4
  24498988.290    24498997.375     -798383.987 6   1104765.969 2
 86  6 17  4 22 35.0800000  0  3G12G13G 7
  21715773.365    21715782.035    46158260.389 5 -60786218.810 4
  22013678.826    22013686.253     8251345.202 5  -5853582.560 4
  24498605.605    24498609.011     -800384.721 6   1103206.944 2
 86  6 17  4 22 41.0800000  0  3G12G13G 7
  21718671.543    21718676.690    46173487.643 6 -60774353.394 1
  22015387.217    22015394.491     8260319.784 6  -5846589.384 3
  24498229.659    24498235.617     -802363.055 6   1101665.362 4
 86  6 17  4 22 47.0800000  0  3G12G13G 7
  21721569.762    21721578.877    46188732.645 6 -60762474.167 2
  22017095.144    22017099.891     8269295.916 5  -5839594.985 5
                  24497860.572                     1100146.063 1
 86  6 17  4 22 53.0800000  0  3G12G13G 7
  21724476.338    21724479.717    46203995.423 5 -60750581.094 2
  22018803.917    22018807.493     8278273.725 4  -5832599.311 3
  24497495.634    24497493.674     -840747.259 6   1098654.298 4
 86  6 17  4 22 59.0800000  0  3G12G13G 7
  21727381.445    21727389.920    46219275.976 6 -60738674.159 3
  22020514.930    22020517.857     8287253.015 6  -5825602.451 3
  24497136.565    24497139.347     -842623.993 6   1097191.941 2
 86  6 17  4 23  5.0800000  0  3G12G13G 7
  21730294.506    21730300.333    46234574.335 6 -60726753.353 2
  22022220.726    22022226.881     8296233.886 6  -5818604.317 5
  24496787.596    24496791.281     -844465.671 6   1095756.850 1
 86  6 17  4 23 11.0800000  0  3G12G13G 7
  21733208.842    21733214.114    46249890.425 6 -60714818.752 3
  22023930.354    22023938.658     8305216.393 5  -5811605.020 3
                  24496448.503                     1094345.382 2
 86  6 17  4 23 17.0800000  0  3G12G13G 7
  21736127.827    21736133.589    46265224.258 7 -60702870.318 1
  22025640.360    22025645.319     8314200.468 6  -5804604.432 3
  24496100.177    24496108.279     -882720.826 6   1092954.225 4
 86  6 17  4 23 23.0800000  0  3G12G13G 7
  21739050.106    21739054.637    46280575.753 6 -60690908.078 4
  22027352.488    22027353.042     8323186.104 5  -5797602.608 2
  24495767.431    24495769.511     -884482.864 6   1091581.270 3
 86  6 17  4 23 29.0800000  0  3G12G13G 7
  21741975.925    21741980.397    46295944.953 6 -60678932.105 3
  22029060.180    22029065.329     8332173.372 5  -5790599.565 2
  24495435.361    24495441.935     -886224.253 6   1090224.708 4
 86  6 17  4 23 35.0800000  0  3G12G13G 7
  21744903.391    21744902.663    46311331.811 6 -60666942.347 2
  22030772.234    22030773.947     8341162.200 6  -5783595.286 3
  24495109.550    24495113.078     -887944.695 7   1088884.116 2
 86  6 17  4 23 41.0800000  0  3G12G13G 7
  21747832.138    21747839.640    46326736.255 6 -60654938.887 1
  22032481.793    22032489.233     8350152.528 6  -5776589.849 4
  24494784.566    24494791.162     -889642.686 5   1087560.962 5
 86  6 17  4 23 47.0800000  0  3G12G13G 7
  21750767.006    21750771.720    46342158.238 6 -60642921.753 1
  22034192.923    22034195.147     8359144.408 6  -5769583.161 3
                  24494467.394     -891311.738 5
 86  6 17  4 23 53.0800000  0  3G12G13G 7
  21753707.351    21753714.056    46357597.681 6 -60630891.033 1
  22035902.980    22035907.585     8368137.787 4  -5762575.326 4
  24494155.109    24494164.703     -892945.246 6   1132354.092 4
 86  6 17  4 23 59.0800000  0  3G12G13G 7
  21756648.399    21756651.707    46373054.533 7 -60618846.711 4
  22037615.020    22037619.655     8377132.638 5  -5755566.333 2
  24493854.601    24493857.040     -894541.091 6   1131110.544 3
 86  6 17  4 24  5.0800000  0  3G12G13G 7
  21759591.857    21759596.979    46388528.867 7 -60606788.821 3
  22039328.392    22039334.867     8386128.997 5  -5748556.206 2
  24493556.149    24493558.341     -896102.275 7   1129893.550 3
 86  6 17  4 24 11.0800000  0  3G12G13G 7
  21762538.829    21762545.552    46404020.649 6 -60594717.271 3
  22041038.802    22041042.434     8395126.799 6  -5741544.930 3
  24493264.865    24493271.708     -897633.519 6   1128700.342 3
 86  6 17  4 24 17.0800000  0  3G12G13G 7
  21765492.527    21765495.755    46419529.817 6 -60582632.192 2
  22042751.674    22042756.732     8404126.118 5  -5734532.466 5
  24492977.059    24492983.017     -899138.855 6   1127527.406 2
 86  6 17  4 24 23.0800000  0  3G12G13G 7
  21768442.646    21768449.323    46435056.466 5 -60570533.523 3
  22044465.276    22044473.768     8413127.033 3  -5727518.746 1
  24492697.391    24492702.751     -900620.861 6   1126372.588 1
 86  6 17  4 24 29.0800000  0  3G12G13G 7
  21771403.460    21771409.886    46450600.516 6 -60558421.295 4
  22046177.921    22046181.392     8422129.566 6  -5720503.795 3
  24492419.433    24492422.532     -902081.861 6   1125234.163 3
 86  6 17  4 24 35.0800000  0  3G12G13G 7
  21774365.063    21774371.930    46466162.005 5 -60546295.470 1
  22047891.245    22047896.587     8431133.695 6  -5713487.655 3
  24492145.670    24492150.660     -903522.416 6   1124111.615 4
 86  6 17  4 24 41.0800000  0  3G12G13G 7
  21777329.892    21777337.097    46481740.870 6 -60534156.099 4
  22049606.177    22049613.741     8440139.414 5  -5706470.142 4
  24491874.940    24491880.153     -904940.006 6   1123006.996 3
 86  6 17  4 24 47.0800000  0  3G12G13G 7
  21780298.896    21780305.146    46497337.119 6 -60522003.173 3
  22051319.270    22051326.238     8449146.759 6  -5699451.440 2
                  24491615.454                     1121925.426 1
 86  6 17  4 24 53.0800000  0  3G12G13G 7
  21783268.453    21783272.770    46512950.699 5 -60509836.741 4
  22053036.137    22053038.598     8458155.639 5  -5692431.521 3
  24491351.563    24491356.480     -942647.139 6   1120871.842 3
 86  6 17  4 24 59.0800000  0  3G12G13G 7
  21786241.548    21786246.433    46528581.535 5 -60497656.839 1
  22054751.073    22054754.894     8467166.033 5  -5685410.440 2
  24491102.287    24491111.115     -943961.543 7   1119847.626 2
 86  6 17  4 25  5.0800000  0  3G12G13G 7
  21789221.278    21789226.134    46544229.629 6 -60485463.517 3
  22056464.285    22056467.837     8476177.957 5  -5678388.153 3
  24490858.637    24490867.058     -945241.558 6   1118850.235 2
 86  6 17  4 25 11.0800000  0  3G12G13G 7
  21792202.020    21792207.900    46559895.015 6 -60473256.768 3
  22058177.974    22058180.242     8485191.464 7  -5671364.621 2
  24490622.472    24490625.452     -946491.602 6   1117876.141 4
 86  6 17  4 25 17.0800000  0  3G12G13G 7
  21795187.244    21795191.560    46575577.521 6 -60461036.597 3
  22059894.225    22059899.254     8494206.533 6  -5664339.883 2
  24490387.779    24490393.497     -947715.873 6   1116922.220 3
 86  6 17  4 25 23.0800000  0  3G12G13G 7
  21798172.668    21798180.170    46591277.132 5 -60448803.153 2
  22061608.868    22061616.899     8503223.180 5  -5657313.954 3
  24490159.830    24490167.367     -948916.992 6   1115986.274 2
 86  6 17  4 25 29.0800000  0  3G12G13G 7
  21801164.338    21801166.827    46606993.829 6 -60436556.395 3
  22063327.346    22063329.522     8512241.296 6  -5650286.840 3
  24489935.211    24489941.504     -950097.178 6   1115066.639 4
 86  6 17  4 25 35.0800000  0  3G12G13G 7
  21804156.983    21804161.357    46622727.526 6 -60424296.356 3
  22065044.364    22065047.205     8521260.696 6  -5643258.728 3
  24489714.649    24489719.559     -951257.042 6   1114162.856 3
 86  6 17  4 25 41.0800000  0  3G12G13G 7
  21807156.642    21807160.796    46638478.131 5 -60412023.179 2
  22066760.724    22066763.702     8530281.471 6  -5636229.538 3
  24489497.771    24489504.037     -952393.912 6   1113277.001 3
 86  6 17  4 25 47.0800000  0  3G12G13G 7
  21810159.833    21810161.839    46654245.770 6 -60399736.674 4
  22068478.273    22068476.421     8539303.674 6  -5629199.248 2
                  24489289.832                     1112414.257 2
 86  6 17  4 25 53.0800000  0  3G12G13G 7
  21813159.849    21813166.378    46670030.400 6 -60387437.007 3
  22070192.667    22070198.793     8548327.343 6  -5622167.823 3
  24489081.412    24489087.247     -989935.591 6   1111579.717 1
 86  6 17  4 25 59.0800000  0  3G12G13G 7
  21816167.343    21816175.075    46685831.822 6 -60375124.197 3
  22071909.269    22071913.775     8557352.493 5  -5615135.246 6
  24488887.052    24488893.943     -990969.273 6   1110774.203 3
 86  6 17  4 26  5.0800000  0  3G12G13G 7
  21819177.801    21819183.833    46701650.236 5 -60362798.176 3
  22073629.755    22073631.269     8566379.179 6  -5608101.479 3
  24488696.961    24488701.014     -991968.433 6   1109995.279 3
 86  6 17  4 26 11.0800000  0  3G12G13G 7
  21822187.992    21822197.333    46717485.649 6 -60350458.867 3
  22075345.777    22075354.624     8575407.441 6  -5601066.447 4
  24488511.679    24488517.723     -992938.382 6   1109239.509 4
 86  6 17  4 26 17.0800000  0  3G12G13G 7
  21825206.488    21825214.924    46733337.945 5 -60338106.450 3
  22077063.974    22077070.866     8584437.193 5  -5594030.252 3
  24488332.135    24488337.455     -993882.712 6   1108503.648 1
 86  6 17  4 26 23.0800000  0  3G12G13G 7
  21828225.143    21828231.983    46749207.151 5 -60325740.829 3
  22078783.645    22078783.835     8593468.426 6  -5586992.964 3
  24488156.550    24488159.226     -994804.188 5   1107785.624 3
 86  6 17  4 26 29.0800000  0  3G12G13G 7
  21831249.460    21831253.979    46765093.251 6 -60313362.031 5
  22080502.751    22080505.897     8602501.153 6  -5579954.414 2
  24487985.227    24487989.879     -995704.569 6   1107084.036 2
 86  6 17  4 26 35.0800000  0  3G12G13G 7
  21834277.572    21834280.153    46780996.255 5 -60300970.089 1
  22082221.690    22082225.676     8611535.517 6  -5572914.666 4
  24487818.101    24487824.887     -996584.422 5   1106398.457 3
 86  6 17  4 26 41.0800000  0  3G12G13G 7
  21837305.196    21837312.751    46796916.086 5 -60288565.028 3
  22083942.340    22083943.431     8620571.359 6  -5565873.756 2
                  24487660.664                     1105731.191 1
 86  6 17  4 26 47.0800000  0  3G12G13G 7
  21840338.728    21840344.057    46812852.880 5 -60276146.739 2
  22085662.530    22085666.322     8629608.812 5  -5558831.585 2
  24487533.194    24487503.946    -1033907.865 6   1105087.160 2
 86  6 17  4 26 53.0800000  0  3G12G13G 7
  21843373.008    21843382.948    46828806.579 5 -60263715.326 3
  22087381.064    22087384.367     8638647.934 6  -5551788.133 2
  24487346.310    24487356.527    -1034697.783 7   1104471.934 3
 86  6 17  4 26 59.0800000  0  3G12G13G 7
  21846412.162    21846417.579    46844777.055 6 -60251270.782 1
  22089100.403    22089102.921     8647688.712 6  -5544743.364 2
  24487203.783    24487212.738    -1035449.865 6   1103885.881 3
 86  6 17  4 27  5.0800000  0  3G12G13G 7
  21849456.099    21849458.722    46860764.256 5 -60238813.218 4
  22090822.318    22090825.920     8656731.083 6  -5537697.334 2
  24487067.971    24487075.879    -1036167.890 6   1103326.397 1
 86  6 17  4 27 11.0800000  0  3G12G13G 7
  21852500.316    21852506.095    46876768.146 4 -60226342.633 3
  22092540.948    22092546.487     8665775.051 5  -5530650.114 2
  24486938.226    24486941.369    -1036856.489 5   1102789.804 3
 86  6 17  4 27 17.0800000  0  3G12G13G 7
  21855549.902    21855557.786    46892788.817 6 -60213859.035 3
  22094264.307    22094271.949     8674820.570 5  -5523601.636 3
  24486810.310    24486815.286    -1037519.518 6   1102273.171 2
 86  6 17  4 27 23.0800000  0  3G12G13G 7
  21858599.673    21858607.214    46908826.112 4 -60201362.429 2
  22095985.235    22095988.695     8683867.595 5  -5516552.016 3
  24486688.299    24486695.993    -1038159.668 6   1101774.342 3
 86  6 17  4 27 29.0800000  0  3G12G13G 7
  21861657.536    21861658.635    46924880.154 6 -60188852.793 2
  22097708.070    22097713.493     8692916.265 5  -5509501.092 4
  24486571.874    24486576.078    -1038778.930 5   1101291.810 3
 86  6 17  4 27 35.0800000  0  3G12G13G 7
  21864713.613    21864720.689    46940950.682 5 -60176330.285 3
  22099430.043    22099431.693     8701966.433 6  -5502448.997 2
  24486456.684    24486464.097    -1039377.840 6   1100825.119 3
 86  6 17  4 27 41.0800000  0  3G12G13G 7
  21867774.613    21867781.613    46957037.829 5 -60163794.857 2
  22101155.100    22101154.088     8711018.007 6  -5495395.809 3
  24486345.894    24486352.476    -1039953.016 6   1100376.938 2
 86  6 17  4 27 47.0800000  0  3G12G13G 7
  21870840.820    21870847.075    46973141.331 6 -60151246.668 5
  22102874.975    22102881.191     8720071.063 6  -5488341.491 1
                  24486247.690                     1099952.567 2
 86  6 17  4 27 53.0800000  0  3G12G13G 7
  21873907.607    21873911.606    46989261.277 5 -60138685.696 2
  22104596.591    22104602.611     8729125.474 6  -5481286.139 2
  24486149.956    24486148.033    -1076940.894 6   1099556.613 1
 86  6 17  4 27 59.0800000  0  3G12G13G 7
  21876979.275    21876984.913    47005397.638 6 -60126111.941 4
  22106322.344    22106321.642     8738181.222 6  -5474229.664 3
  24486059.333    24486061.641    -1077411.957 6   1099189.498 2
 86  6 17  4 28  5.0800000  0  3G12G13G 7
  21880048.237    21880061.259    47021550.340 6 -60113525.410 2
  22108047.432    22108050.243     8747238.375 6  -5467172.202 3
  24485973.880    24485981.604    -1077849.236 6   1098848.740 1
 86  6 17  4 28 11.0800000  0  3G12G13G 7
  21883128.473    21883136.959    47037719.466 5 -60100926.089 2
  22109771.013    22109770.062     8756297.059 5  -5460113.433 4
  24485896.272    24485901.556    -1078257.456 7   1098530.662 2
 86  6 17  4 28 17.0800000  0  3G12G13G 7
  21886207.296    21886215.377    47053904.918 4 -60088314.057 4
  22111492.602    22111498.297     8765357.234 6  -5453053.576 1
  24485825.437    24485828.201    -1078640.479 6   1098232.210 2
 86  6 17  4 28 23.0800000  0  3G12G13G 7
  21889292.484    21889296.218    47070106.730 4 -60075689.268 1
  22113217.255    22113220.777     8774418.879 5  -5445992.525 3
  24485756.746    24485756.718    -1079000.914 6   1097951.367 2
 86  6 17  4 28 29.0800000  0  3G12G13G 7
  21892380.169    21892385.980    47086324.816 5 -60063051.805 4
  22114940.657    22114946.048     8783482.069 6  -5438930.305 4
  24485690.776    24485695.208    -1079340.556 6   1097686.704 2
 86  6 17  4 28 35.0800000  0  3G12G13G 7
  21895466.106    21895474.554    47102559.217 5 -60050401.617 3
  22116666.262    22116672.180     8792546.843 6  -5431866.870 1
  24485629.706    24485632.371    -1079659.645 6   1097438.073 4
 86  6 17  4 28 41.0800000  0  3G12G13G 7
  21898557.572    21898568.559    47118810.014 5 -60037738.670 3
  22118391.978    22118396.038     8801613.113 6  -5424802.225 2
  24485572.062    24485580.918    -1079954.824 6   1097208.065 4
 86  6 17  4 28 47.0800000  0  3G12G13G 7
  21901655.157    21901660.632    47135077.159 5 -60025062.957 3
  22120118.353    22120122.634     8810680.922 6  -5417736.423 3
                  24485528.005                     1097002.300 2
 86  6 17  4 28 53.0800000  0  3G12G13G 7
  21904751.724    21904759.978    47151360.539 3 -60012374.608 3
  22121841.383    22121849.202     8819750.209 5  -5410669.418 1
  24485483.196    24485485.042    -1116659.715 6   1096825.215 4
 86  6 17  4 28 59.0800000  0  3G12G13G 7
  21907853.052    21907863.230    47167660.277 4 -59999673.508 5
  22123569.702    22123576.668     8828821.047 5  -5403601.240 3
  24485443.380    24485451.922    -1116849.762 5   1096677.117 3
 86  6 17  4 29  5.0800000  0  3G12G13G 7
  21910960.315    21910965.347    47183976.224 5 -59986959.790 4
  22125297.109    22125300.314     8837893.491 5  -5396531.794 3
  24485412.702    24485417.369    -1117006.821 6   1096555.152 2
 86  6 17  4 29 11.0800000  0  3G12G13G 7
  21914069.401    21914074.489    47200308.388 6 -59974233.447 3
  22127024.969    22127024.195     8846967.517 6  -5389461.109 3
  24485389.201    24485395.190    -1117134.486 6   1096455.613 3
 86  6 17  4 29 17.0800000  0  3G12G13G 7
  21917177.075    21917184.445    47216656.702 4 -59961494.507 2
  22128750.600    22128755.448     8856043.128 6  -5382389.200 4
  24485370.395    24485374.785    -1117237.036 6   1096375.710 3
 86  6 17  4 29 23.0800000  0  3G12G13G 7
  21920293.269    21920299.345    47233021.156 5 -59948742.972 3
  22130477.865    22130481.607     8865120.363 7  -5375316.018 3
  24485354.774    24485358.800    -1117316.865 6   1096313.510 1
 86  6 17  4 29 29.0800000  0  3G12G13G 7
  21923410.905    21923414.497    47249401.704 5 -59935978.903 3
  22132204.471    22132209.804     8874199.081 6  -5368241.721 3
  24485344.389    24485354.371    -1117375.970 6   1096267.445 2
 86  6 17  4 29 35.0800000  0  3G12G13G 7
  21926530.257    21926536.642    47265798.349 5 -59923202.302 4
  22133932.766    22133938.888     8883279.317 6  -5361166.231 3
  24485336.720    24485341.442    -1117414.562 6   1096237.403 3
 86  6 17  4 29 41.0800000  0  3G12G13G 7
  21929652.129    21929656.206    47282210.950 4 -59910413.265 2
  22135662.255    22135667.820     8892361.031 6  -5354089.509 2
  24485334.436    24485340.427    -1117428.932 6   1096226.226 1
 86  6 17  4 29 47.0800000  0  3G12G13G 7
  21932782.968    21932784.488    47298639.530 4 -59897611.757 1
  22137388.665    22137394.632     8901444.240 6  -5347011.698 3
                  24485341.833                     1096239.525 2
 86  6 17  4 29 53.0800000  0  3G12G13G 7
  21935907.918    21935915.172    47315084.203 5 -59884797.750 3
  22139119.012    22139119.859     8910528.894 6  -5339932.769 3
  24485348.526    24485354.199    -1153855.846 6   1096281.620 2
 86  6 17  4 29 59.0800000  0  3G12G13G 7
  21939041.208    21939049.595    47331544.711 4 -59871971.382 5
  22140846.707    22140849.261     8919614.933 6  -5332852.707 2
  24485365.752    24485371.888    -1153764.842 6   1096352.489 2
 86  6 17  4 30  5.0800000  0  3G12G13G 7
  21942176.576    21942184.494    47348021.073 5 -59859132.655 2
  22142576.169    22142581.299     8928702.461 5  -5325771.540 1
  24485389.385    24485393.327    -1153640.630 6   1096449.298 2
 86  6 17  4 30 11.0800000  0  3G12G13G 7
  21945314.507    21945318.651    47364513.406 4 -59846281.497 3
  22144306.673    22144309.648     8937791.494 5  -5318689.168 4
  24485417.398    24485424.594    -1153487.847 7   1096568.405 3
 86  6 17  4 30 17.0800000  0  3G12G13G 7
  21948453.532    21948460.738    47381021.694 5 -59833417.894 2
  22146036.827    22146040.168     8946882.050 5  -5311605.604 3
  24485452.238    24485458.329    -1153310.037 6   1096706.932 3
 86  6 17  4 30 23.0800000  0  3G12G13G 7
  21951600.107    21951606.336    47397545.841 5 -59820541.942 4
  22147767.271    22147777.023     8955974.172 6  -5304520.852 4
  24485489.995    24485493.701    -1153109.753 6   1096862.988 2
 86  6 17  4 30 29.0800000  0  3G12G13G 7
  21954749.016    21954755.276    47414085.873 4 -59807653.582 3
  22149495.583    22149499.835     8965067.894 5  -5297434.811 1
  24485532.054    24485535.459    -1152888.867 6   1097035.120 4
 86  6 17  4 30 35.0800000  0  3G12G13G 7
  21957898.743    21957904.383    47430641.654 5 -59794752.991 2
  22151228.287    22151228.887     8974163.164 5  -5290347.610 3
  24485577.124    24485582.008    -1152647.335 7   1097223.327 2
 86  6 17  4 30 41.0800000  0  3G12G13G 7
  21961052.959    21961059.211    47447213.165 4 -59781840.148 1
  22152958.458    22152962.614     8983259.867 6  -5283259.282 3
                  24485632.624                     1097430.619 1
 86  6 17  4 30 47.0800000  0  3G12G13G 7
  21964208.927    21964216.773    47463800.423 4 -59768914.996 4
  22154689.562    22154692.654     8992358.077 5  -5276169.731 3
  24485676.585    24485691.166    -1188860.185 6   1097662.543 3
 86  6 17  4 30 53.0800000  0  3G12G13G 7
  21967367.473    21967376.775    47480403.432 4 -59755977.585 4
  22156420.806    22156427.776     9001457.795 6  -5269079.063 2
  24485747.468    24485751.367    -1188525.495 6   1097923.360 2
 86  6 17  4 30 59.0800000  0  3G12G13G 7
  21970528.454    21970538.597    47497022.153 6 -59743027.960 2
  22158150.825    22158155.861     9010559.030 4  -5261987.199 3
  24485819.790    24485827.358    -1188153.350 6   1098212.926 3
 86  6 17  4 31  5.0800000  0  3G12G13G 7
  21973693.785    21973703.741    47513656.461 6 -59730066.169 3
  22159886.260    22159888.297     9019661.736 5  -5254894.193 1
  24485897.734    24485901.282    -1187748.854 6   1098528.117 3
 86  6 17  4 31 11.0800000  0  3G12G13G 7
  21976865.206    21976873.283    47530306.340 6 -59717092.226 1
  22161616.589    22161621.617     9028765.845 5  -5247800.064 1
  24485979.166    24485983.103    -1187316.124 6   1098865.332 2
 86  6 17  4 31 17.0800000  0  3G12G13G 7
  21980034.218    21980041.708    47546971.773 6 -59704106.192 1
  22163351.380    22163359.192     9037871.428 5  -5240704.812 3
  24486065.716    24486070.999    -1186858.671 7   1099221.775 2
 86  6 17  4 31 23.0800000  0  3G12G13G 7
  21983210.434    21983216.101    47563652.696 5 -59691108.026 2
  22165083.558    22165088.777     9046978.435 7  -5233608.422 1
  24486157.021    24486161.080    -1186378.949 6   1099595.590 4
 86  6 17  4 31 29.0800000  0  3G12G13G 7
  21986389.399    21986391.759    47580349.176 6 -59678097.789 2
  22166814.572    22166823.446     9056087.023 5  -5226510.858 2
  24486254.572    24486257.629    -1185878.815 6   1099985.300 2
 86  6 17  4 31 35.0800000  0  3G12G13G 7
  21989566.533    21989571.005    47597061.173 6 -59665075.459 2
  22168549.923    22168554.476     9065197.129 5  -5219412.059 1
  24486352.255    24486355.123    -1185357.845 6   1100391.292 3
 86  6 17  4 31 41.0800000  0  3G12G13G 7
  21992748.352    21992755.677    47613788.789 4 -59652041.000 2
  22170283.680    22170291.007     9074308.849 6  -5212312.015 3
                  24486458.734                     1100816.660 3
 86  6 17  4 31 47.0800000  0  3G12G13G 7
  21995937.917    21995941.445    47630531.857 6 -59638994.419 3
  22172019.362    22172021.585     9083422.174 5  -5205210.711 1
  24486565.086    24486572.241    -1221295.103 6   1101266.810 2
 86  6 17  4 31 53.0800000  0  3G12G13G 7
  21999124.615    21999128.943    47647290.406 7 -59625935.815 2
  22173752.378    22173751.223     9092536.979 6  -5198108.260 3
  24486681.798    24486687.023    -1220680.500 6   1101746.229 3
 86  6 17  4 31 59.0800000  0  3G12G13G 7
  22002318.232    22002321.960    47664064.495 7 -59612865.093 3
  22175489.467    22175490.804     9101653.405 5  -5191004.545 1
  24486806.587    24486806.425    -1220029.070 7   1102254.182 2
 86  6 17  4 32  5.0800000  0  3G12G13G 7
  22005513.686    22005519.939    47680854.103 6 -59599782.295 2
  22177222.544    22177230.750     9110771.484 5  -5183899.573 3
  24486936.733    24486942.525    -1219344.386 7   1102787.698 4
 86  6 17  4 32 11.0800000  0  3G12G13G 7
  22008708.699    22008714.621    47697659.155 6 -59586687.456 3
  22178957.465    22178962.130     9119891.153 5  -5176793.352 1
  24487074.283    24487075.584    -1218631.398 6   1103343.313 3
 86  6 17  4 32 17.0800000  0  3G12G13G 7
  22011912.609    22011917.631    47714479.506 6 -59573580.662 2
  22180694.731    22180698.224     9129012.262 6  -5169685.956 1
  24487214.026    24487217.417    -1217893.792 7   1103918.077 3
 86  6 17  4 32 23.0800000  0  3G12G13G 7
  22015116.757    22015120.381    47731315.078 6 -59560462.024 3
  22182429.753    22182435.680     9138134.833 6  -5162577.469 3
  24487357.567    24487364.974    -1217134.072 7   1104510.022 1
 86  6 17  4 32 29.0800000  0  3G12G13G 7
  22018322.199    22018327.008    47748165.858 6 -59547331.579 1
  22184167.871    22184173.942     9147258.852 6  -5155467.860 2
  24487505.238    24487511.995    -1216354.108 6   1105117.782 1
 86  6 17  4 32 35.0800000  0  3G12G13G 7
  22021531.298    22021539.153    47765031.809 6 -59534189.266 3
  22185904.113    22185903.220     9156384.437 5  -5148357.022 1
  24487657.255    24487659.348    -1215553.351 5   1105741.751 3
 86  6 17  4 32 41.0800000  0  3G12G13G 7
  22024744.606    22024750.387    47781913.044 6 -59521035.070 3
  22187640.347    22187643.587     9165511.443 6  -5141245.022 3
                  24487820.824                     1106385.264 2
 86  6 17  4 32 47.0800000  0  3G12G13G 7
  22027960.178    22027967.802    47798809.564 6 -59507868.973 3
  22189378.500    22189381.923     9174640.029 5  -5134131.863 1
  24487876.463    24487979.089    -1251208.515 6   1107053.901 1
 86  6 17  4 32 53.0800000  0  3G12G13G 7
  22031177.302    22031184.352    47815721.215 7 -59494691.018 2
  22191113.819    22191116.073     9183770.112 5  -5127017.510 3
  24488148.624    24488151.248    -1250312.900 6   1107751.731 3
 86  6 17  4 32 59.0800000  0  3G12G13G 7
  22034398.405    22034405.754    47832648.051 6 -59481501.305 3
  22192851.202    22192857.494     9192901.686 6  -5119902.019 2
  24488325.891    24488331.830    -1249381.030 6   1108477.886 1
 86  6 17  4 33  5.0800000  0  3G12G13G 7
  22037623.559    22037627.518    47849589.977 6 -59468299.782 1
  22194590.585    22194594.826     9202034.708 6  -5112785.361 1
  24488511.038    24488512.412    -1248416.536 6   1109229.417 3
 86  6 17  4 33 11.0800000  0  3G12G13G 7
  22040851.548    22040857.629    47866546.935 6 -59455086.584 1
  22196328.675    22196330.629     9211169.214 5  -5105667.577 2
  24488697.303    24488704.870    -1247424.279 5   1110002.587 1
 86  6 17  4 33 17.0800000  0  3G12G13G 7
  22044079.026    22044086.642    47883519.001 6 -59441861.599 1
  22198066.931    22198070.890     9220305.208 5  -5098548.632 3
  24488891.093    24488895.806    -1246407.677 6   1110794.764 1
 86  6 17  4 33 23.0800000  0  3G12G13G 7
  22047309.698    22047319.088    47900506.059 7 -59428624.928 3
  22199804.787    22199810.375     9229442.694 4  -5091428.515 2
  24489088.476    24489096.500    -1245369.127 5   1111603.993 4
 86  6 17  4 33 29.0800000  0  3G12G13G 7
  22050547.056    22050553.104    47917508.135 6 -59415376.549 3
  22201545.095    22201546.056     9238581.716 5  -5084307.184 2
  24489291.884    24489292.788    -1244310.257 6   1112429.126 2
 86  6 17  4 33 35.0800000  0  3G12G13G 7
  22053786.874    22053789.368    47934525.225 7 -59402116.501 3
  22203285.568    22203288.707     9247722.199 5  -5077184.738 1
  24489497.565    24489502.296    -1243230.432 6   1113270.517 3
 86  6 17  4 33 41.0800000  0  3G12G13G 7
  22057025.205    22057032.491    47951557.232 6 -59388844.792 4
  22205023.470    22205029.687     9256864.124 5  -5070061.152 2
                  24489713.869                     1114131.794 3
 86  6 17  4 33 47.0800000  0  3G12G13G 7
  22060272.031    22060279.797    47968604.181 7 -59375561.471 2
  22206763.092    22206768.357     9266007.615 6  -5062936.381 2
  24489907.477    24489929.413    -1278614.651 6   1115018.340 2
 86  6 17  4 33 53.0800000  0  3G12G13G 7
  22063515.489    22063520.005    47985666.022 6 -59362266.525 2
  22208506.053    22208511.652     9275152.589 6  -5055810.415 1
  24490148.413    24490150.626    -1277439.642 7   1115934.108 4
 86  6 17  4 33 59.0800000  0  3G12G13G 7
  22066767.407    22066773.657    48002742.744 6 -59348960.028 1
  22210243.122    22210246.950     9284299.055 5  -5048683.307 2
  24490376.063    24490383.552    -1276227.657 6   1116878.135 3
 86  6 17  4 34  5.0800000  0  3G12G13G 7
  22070017.672    22070025.623    48019834.267 6 -59335641.907 1
  22211985.254    22211986.568     9293446.964 6  -5041555.028 1
  24490615.316    24490621.225    -1274984.158 6   1117847.062 1
 86  6 17  4 34 11.0800000  0  3G12G13G 7
  22073273.424    22073275.992    48036940.579 6 -59322312.328 3
  22213725.143    22213731.818     9302596.470 5  -5034425.559 2
  24490857.054    24490857.463    -1273713.139 6   1118837.501 2
 86  6 17  4 34 17.0800000  0  3G12G13G 7
  22076531.925    22076536.610    48054061.738 6 -59308971.175 2
  22215467.360    22215474.909     9311747.545 5  -5027294.841 3
  24491103.316    24491107.295    -1272417.887 7   1119846.775 3
 86  6 17  4 34 23.0800000  0  3G12G13G 7
  22079793.637    22079797.603    48071197.737 7 -59295618.432 1
  22217210.121    22217216.029     9320900.286 6  -5020162.856 1
  24491354.130    24491358.959    -1271100.600 6   1120873.225 2
 86  6 17  4 34 29.0800000  0  3G12G13G 7
  22083057.712    22083061.259    48088348.603 6 -59282254.107 3
  22218951.047    22218955.702     9330054.558 6  -5013029.625 3
  24491607.753    24491615.096    -1269762.988 7   1121915.507 4
 86  6 17  4 34 35.0800000  0  3G12G13G 7
  22086323.220    22086326.347    48105514.252 7 -59268878.310 2
  22220691.996    22220700.090     9339210.453 7  -5005895.212 2
  24491865.789    24491874.395    -1268404.271 6   1122974.247 3
 86  6 17  4 34 41.0800000  0  3G12G13G 7
  22089591.679    22089597.749    48122694.653 6 -59255490.967 3
  22222434.585    22222442.963     9348368.004 5  -4998759.484 2
                  24492133.773                     1124053.072 3
 86  6 17  4 34 47.0800000  0  3G12G13G 7
  22092864.529    22092868.350    48139889.796 5 -59242092.175 3
  22224179.600    22224180.154     9357527.100 5  -4991622.451 3
  24492397.137    24492403.902    -1303506.553 4   1125157.585 3
 86  6 17  4 34 53.0800000  0  3G12G13G 7
  22096139.308    22096148.082    48157099.639 6 -59228681.921 2
  22225920.870    22225928.470     9366687.726 6  -4984484.317 1
  24492679.944    24492682.355    -1302051.430 6   1126291.292 2
 86  6 17  4 34 59.0800000  0  3G12G13G 7
  22099417.796    22099421.963    48174324.080 6 -59215260.248 1
  22227664.705    22227664.563     9375849.794 6  -4977345.033 2
  24492961.221    24492965.038    -1300560.287 6   1127453.195 2
 86  6 17  4 35  5.0800000  0  3G12G13G 7
  22102697.675    22102703.050    48191563.051 6 -59201827.326 1
  22229408.964    22229415.903     9385013.307 5  -4970204.663 2
  24493250.645    24493255.639    -1299037.498 6   1128639.793 1
 86  6 17  4 35 11.0800000  0  3G12G13G 7
  22105981.154    22105986.236    48208816.553 6 -59188382.989 3
  22231151.380    22231157.593     9394178.336 6  -4963063.040 1
  24493544.421    24493548.071    -1297487.359 6   1129847.704 2
 86  6 17  4 35 17.0800000  0  3G12G13G 7
  22109267.266    22109274.921    48226084.586 6 -59174927.382 2
  22232897.942    22232900.818     9403344.869 5  -4955920.312 2
  24493845.063    24493850.421    -1295913.205 6   1131074.306 1
 86  6 17  4 35 23.0800000  0  3G12G13G 7
  22112555.885    22112562.482    48243367.037 5 -59161460.540 3
  22234643.439    22234648.314     9412512.923 6  -4948776.379 2
  24494149.475    24494153.843    -1294317.365 5   1132317.806 2
 86  6 17  4 35 29.0800000  0  3G12G13G 7
  22115846.592    22115853.140    48260663.961 6 -59147982.435 2
  22236387.771    22236389.979     9421682.566 6  -4941631.186 2
  24494457.513    24494462.012    -1292701.155 6   1133577.209 2
 86  6 17  4 35 35.0800000  0  3G12G13G 7
  22119143.139    22119145.862    48277975.252 6 -59134493.124 3
  22238131.535    22238136.883     9430853.769 6  -4934484.794 2
  24494768.286    24494774.003    -1291063.859 6   1134853.035 3
 86  6 17  4 35 41.0800000  0  3G12G13G 7
  22122438.700    22122447.083    48295301.026 6 -59120992.517 3
  22239877.222    22239885.513     9440026.519 6  -4927337.212 2
                  24495090.332                     1136149.076 3
 86  6 17  4 35 47.0800000  0  3G12G13G 7
  22125737.267    22125744.689    48312641.235 6 -59107480.661 1
  22241626.450    22241626.442     9449200.732 5  -4920188.467 3
  24495322.515    24495410.487    -1325893.364 6   1137470.895 3
 86  6 17  4 35 53.0800000  0  3G12G13G 7
  22129039.313    22129044.578    48329995.779 5 -59093957.628 3
  22243372.513    22243372.199     9458376.361 6  -4913038.614 3
  24495739.176    24495741.936    -1324159.455 6   1138821.907 3
